Doylestown, PA

10:19 PM EST on December 15, 2019 (GMT -0500)
Doylestown

Weather History for KDYL - October, 2019

Change the Weather History Date:

Thursday, October 24, 2019

  Actual Average (WUND) Record (WUND)
Temperature  
Mean Temperature 54 °F -  
Max Temperature 69 °F - - (-1)
Min Temperature 39 °F - - (-1)
Degree Days  
Heating Degree Days 12    
Growing Degree Days 4 (Base 50)    
Moisture  
Dew Point 35 °F    
Average Humidity 54    
Maximum Humidity 86    
Minimum Humidity 25    
Precipitation  
Precipitation 0.00 in - - ()
Sea Level Pressure  
Sea Level Pressure 30.29 in    
Wind  
Wind Speed 2 mph (South)    
Max Wind Speed 10 mph    
Max Gust Speed 17 mph    
Visibility 10 miles    
Events      
Averages and records for this station are not official NWS values.
T = Trace of Precipitation, MM = Missing Value Source: NWS Daily Summary

Daily Weather History Graph

Daily Weather History Graph

Search for Another Location

Airport or City:

Astronomy

Oct. 24, 2019 Rise Set
Actual Time 7:20 AM EDT 6:07 PM EDT
Civil Twilight 6:52 AM EDT 6:35 PM EDT
Nautical Twilight 6:21 AM EDT 7:07 PM EDT
Astronomical Twilight 5:49 AM EDT 7:39 PM EDT
Moon 2:46 AM EDT (10/24) 4:34 PM EDT (10/24)
Length of Visible Light 11h 42m
Length of Day
10h 47m
Waning Crescent, 17% of the Moon is Illuminated
Oct 24
Waning Crescent
Oct 27
New
Nov 4
First Quarter
Nov 12
Full
Nov 19
Last Quarter

Hourly Weather History & Observations

Time (EDT) Temp. Dew Point Humidity Pressure Visibility Wind Dir Wind Speed Gust Speed Precip Events Conditions
12:54 AM 46.0 °F 35.1 °F 66% 30.21 in 10.0 mi Calm Calm - N/A   Clear
1:54 AM 44.1 °F 36.0 °F 73% 30.22 in 10.0 mi Calm Calm - N/A   Clear
2:54 AM 44.1 °F 33.1 °F 65% 30.23 in 10.0 mi Calm Calm - N/A   Clear
3:54 AM 42.1 °F 35.1 °F 76% 30.23 in 10.0 mi Calm Calm - N/A   Clear
4:54 AM 39.9 °F 35.1 °F 83% 30.27 in 10.0 mi Calm Calm - N/A   Clear
5:54 AM 41.0 °F 34.0 °F 76% 30.30 in 10.0 mi Calm Calm - N/A   Clear
6:54 AM 39.9 °F 35.1 °F 83% 30.31 in 10.0 mi Calm Calm - N/A   Clear
7:54 AM 39.9 °F 36.0 °F 86% 30.32 in 10.0 mi Calm Calm - N/A   Clear
8:54 AM 46.0 °F 37.9 °F 73% 30.34 in 10.0 mi Calm Calm - N/A   Clear
9:54 AM 55.0 °F 37.9 °F 53% 30.34 in 10.0 mi Calm Calm - N/A   Clear
10:54 AM 61.0 °F 35.1 °F 38% 30.33 in 10.0 mi SSW 4.6 mph - N/A   Clear
11:54 AM 64.0 °F 34.0 °F 33% 30.33 in 10.0 mi South 5.8 mph - N/A   Clear
12:54 PM 68.0 °F 32.0 °F 26% 30.30 in 10.0 mi SW 10.4 mph 17.3 mph N/A   Clear
1:54 PM 68.0 °F 30.9 °F 25% 30.28 in 10.0 mi SSW 8.1 mph - N/A   Clear
2:54 PM 68.0 °F 30.9 °F 25% 30.28 in 10.0 mi Variable 5.8 mph - N/A   Clear
3:54 PM 66.9 °F 30.9 °F 26% 30.28 in 10.0 mi South 4.6 mph - N/A   Clear
4:54 PM 66.0 °F 33.1 °F 29% 30.28 in 10.0 mi SSW 8.1 mph - N/A   Clear
5:54 PM 63.0 °F 34.0 °F 34% 30.28 in 10.0 mi South 4.6 mph - N/A   Clear
6:54 PM 59.0 °F 35.1 °F 41% 30.29 in 10.0 mi SSE 3.5 mph - N/A   Clear
7:54 PM 55.0 °F 36.0 °F 49% 30.30 in 10.0 mi South 3.5 mph - N/A   Clear
8:54 PM 53.1 °F 37.9 °F 57% 30.30 in 10.0 mi Calm Calm - N/A   Clear
9:54 PM 55.0 °F 37.0 °F 51% 30.30 in 10.0 mi SSW 3.5 mph - N/A   Clear
10:54 PM 50.0 °F 39.9 °F 68% 30.31 in 10.0 mi Calm Calm - N/A   Clear
11:54 PM 50.0 °F 41.0 °F 71% 30.31 in 10.0 mi South 3.5 mph - N/A   Clear